This is the latest recevied weather packets stored in our database for station/object WA1TYB-13. If no packets are shown the sender has not sent any weather packets the latest 10 day(s).
| Time | Temp. | Humidity | Pressure | Rain* | Wind** | Luminosity | Snow |
|---|---|---|---|---|---|---|---|
| 1777557618 | 2.78° C | 71% | 1026.7 hPa | 0 mm | - | 121 W/m² | - |
| 1777557314 | 2.78° C | 73% | 1026.3 hPa | 0 mm | - | 150 W/m² | - |
| 1777557011 | 2.78° C | 73% | 1026.3 hPa | 0 mm | - | 92 W/m² | - |
| 1777556706 | 2.78° C | 73% | 1026.3 hPa | 0 mm | - | 81 W/m² | - |
| 1777556403 | 2.22° C | 73% | 1026.4 hPa | 0 mm | - | 68 W/m² | - |
| 1777556098 | 1.67° C | 75% | 1026.4 hPa | 0 mm | - | 48 W/m² | - |
| 1777555797 | 1.11° C | 76% | 1026.6 hPa | 0 mm | - | 42 W/m² | - |
| 1777555494 | 1.11° C | 77% | 1026.3 hPa | 0 mm | - | 42 W/m² | - |
| 1777555190 | 0.56° C | 78% | 1026.4 hPa | 0 mm | - | 39 W/m² | - |
| 1777554888 | 0° C | 79% | 1026.2 hPa | 0 mm | - | 33 W/m² | - |
| 1777554585 | 0° C | 80% | 1026 hPa | 0 mm | - | 30 W/m² | - |
| 1777554281 | 0° C | 80% | 1026.3 hPa | 0 mm | - | 28 W/m² | - |
| 1777553978 | 0° C | 81% | 1026.3 hPa | 0 mm | - | 31 W/m² | - |
| 1777553675 | 0° C | 81% | 1026.1 hPa | 0 mm | - | 29 W/m² | - |
| 1777553372 | 0° C | 81% | 1026.4 hPa | 0 mm | - | 25 W/m² | - |
| 1777553068 | 0° C | 80% | 1026.1 hPa | 0 mm | - | 20 W/m² | - |
| 1777552763 | 0° C | 79% | 1026.2 hPa | 0 mm | - | 15 W/m² | - |
| 1777552459 | 0° C | 78% | 1026.2 hPa | 0 mm | - | 11 W/m² | - |
| 1777552156 | 0° C | 76% | 1026.3 hPa | 0 mm | - | 7 W/m² | - |
| 1777551852 | 0.56° C | 75% | 1026.3 hPa | 0 mm | - | 6 W/m² | - |
| 1777551550 | 0.56° C | 75% | 1026.3 hPa | 0 mm | - | 3 W/m² | - |
| 1777551247 | 0.56° C | 74% | 1026.2 hPa | 0 mm | - | 1 W/m² | - |
| 1777550944 | 0.56° C | 74% | 1026.2 hPa | 0 mm | - | 0 W/m² | - |
| 1777550641 | 0.56° C | 74% | 1026.4 hPa | 0 mm | - | 0 W/m² | - |
| 1777550336 | 0.56° C | 74% | 1026.6 hPa | 0 mm | - | 0 W/m² | - |
* Rain latest hour (hover to see other rain measurements)
** Current wind speed in m/s (hover to see current wind gust speed)